Regional Weather Roundup
Issued by NWS Sioux Falls, SD

Home | Current Version | Previous Version | Graphics & Text | Print | Product List | Glossary On
Versions: 1 2 3 4 5 6 7 8 9 10 11 12 13 14 15 16 17 18 19 20 21 22 23 24 25 26 27 28 29 30 31 32 33 34 35 36 37 38 39 40 41 42 43 44 45 46 47 48 49 50
000
ASUS43 KFSD 111102
RWRFSD

WEATHER ROUNDUP FOR SE SOUTH DAKOTA/SW MINNESOTA/NW IOWA
NATIONAL WEATHER SERVICE SIOUX FALLS SD
500 AM CST MON DEC 11 2017

NOTE: "FAIR" INDICATES FEW OR NO CLOUDS BELOW 12,000 FEET WITH NO
SIGNIFICANT WEATHER AND OR OBSTRUCTIONS TO VISIBILITY.


SDZ038>040-050-052>070-111200-
SOUTHEAST SOUTH DAKOTA

CITY           SKY/WX    TMP DP  RH WIND       PRES   REMARKS
BROOKINGS      MOCLDY    37  24  59 NW21G29   29.79F
CHAMBERLAIN    CLEAR     44  23  43 W18G25    29.98R
HURON          MOCLDY    41  27  57 NW25G37   29.86S
MADISON        FAIR      36  25  64 NW23G30   29.82R
MITCHELL       PTCLDY    39  25  57 NW20G28   29.90R
SIOUX FALLS    PTCLDY    36  25  64 W20G25    29.81F
WINNER         FAIR      48  18  30 NW28G40   30.01S
YANKTON        PTCLDY    42  20  41 W21G30    29.91R
$$

MNZ071-072-080-081-089-090-097-098-111200-
SOUTHWEST MINNESOTA

CITY           SKY/WX    TMP DP  RH WIND       PRES   REMARKS
FAIRMONT       CLOUDY    32  26  78 SW7       29.76F WCI  26
JACKSON        CLOUDY    34  27  75 MISG      29.75F
LUVERNE        CLEAR     30  23  74 W13       29.78F WCI  20
MARSHALL       CLOUDY    39  26  59 W17       29.75F
MONTEVIDEO     MOCLDY    37  28  70 W7        29.73R
PIPESTONE      CLOUDY    30  25  80 W10       29.77R WCI  21
REDWOOD FALLS  CLOUDY    34  26  72 SW7       29.72F WCI  28
TRACY          MOCLDY    39  28  66 W8        29.73F
WINDOM           N/A     36  21  55 SW10      29.73F
WORTHINGTON    CLOUDY    33  25  72 SW16      29.74F WCI  23
$$

IAZ001>003-012>014-020>022-031-032-NEZ013-014-SDZ071-111200-
NORTHWEST IOWA

CITY           SKY/WX    TMP DP  RH WIND       PRES   REMARKS
DENISON        PTCLDY    30  23  74 SW7       29.88F WCI  23
ESTHERVILLE    CLOUDY    35  26  69 W15       29.75F WCI  25
LE MARS        CLOUDY    36  23  60 SW5       29.86F
ORANGE CITY    CLOUDY    34  27  75 W7        29.83F WCI  28
SHELDON        CLOUDY    30  25  80 SW6       29.79F WCI  24
SIOUX CITY     CLOUDY    32  20  61 NW8       29.88F WCI  25
SPENCER        CLOUDY    33  25  72 SW10      29.79F WCI  25
STORM LAKE     CLOUDY    36  23  60 W13       29.82F
$$

ABBREVIATIONS USED IN REMARKS
   TC - TEMPERATURE IN CELSIUS
  WCI - WIND CHILL INDEX
   HX - HEAT INDEX
  VSB - VISIBILITY





USA.gov is the U.S. government's official web portal to all federal, state and local government web resources and services.